[[{"header":{"parameterUnit":"m.s-1","parameterCategory":1,"la1":30.2991,"la2":30.254,"lo1":-89.0895,"lo2":-89.0444,"dy":0.0017,"dx":0.0017,"nx":28,"ny":28,"refTime":"2023-11-22T03:00:00:Z","depth":0,"parameterNumber":2,"parameterNumberName":"U-component_of_WINDS"},"data":[0,0,0,0,0,0,0,0,0,0,0,0,0,0,0,0,0,0,0,0,0,0,0,0,0,0,0,0,0,0,0,0,0,0,0,0,0,0,0,0,0,0,0,0,0,0,0,0,0,0,0,0,0,0,0,0,0,0,-0.2955,-0.2956,0,-0.3064,-0.3065,-0.3066,-0.3038,-0.3036,-0.3034,-0.3032,-0.3148,-0.3153,-0.3159,0,0,0,0,0,0,0,0,0,0,0,0,0,-0.2725,-0.273,-0.2955,-0.2956,-0.2957,-0.3064,-0.3065,-0.3067,-0.3039,-0.3036,-0.3034,-0.3031,-0.3147,-0.3153,-0.3159,0,0,0,0,0,0,0,0,0,0,0,0,0,-0.2829,-0.2731,-0.2954,-0.2956,-0.2957,-0.3063,-0.3065,-0.3067,-0.3039,-0.3036,-0.3033,-0.303,-0.3145,-0.3152,-0.316,-0.3272,0,0,-0.3183,-0.3187,0,0,0,0,0,0,0,0,-0.2823,-0.2838,-0.2954,-0.2956,-0.2958,-0.3034,-0.3027,-0.3136,-0.304,-0.3008,-0.3032,-0.3028,-0.3113,-0.3123,-0.3151,-0.3278,-0.3283,-0.3184,-0.3189,-0.3192,-0.3194,0,0,0,0,0,0,0,-0.2816,-0.2833,-0.2998,-0.2956,-0.2958,-0.2953,-0.2964,-0.3048,-0.3078,-0.3011,-0.3009,-0.3022,-0.3114,-0.3144,-0.3154,-0.3285,-0.3184,-0.3191,-0.3195,-0.3198,-0.3511,-0.3514,0,0,0,0,0,0,-0.2807,-0.2827,-0.2994,-0.3001,-0.2881,-0.2959,-0.2972,-0.3013,-0.3077,-0.3083,-0.3025,-0.302,-0.3132,-0.3145,-0.3158,-0.3296,-0.3192,-0.3199,-0.3203,-0.3507,-0.3512,-0.3515,0,0,0,0,0,0,-0.2802,-0.2822,-0.299,-0.2914,-0.2935,-0.2967,-0.3013,-0.3017,-0.3047,-0.3087,-0.3093,-0.305,-0.313,-0.3147,-0.3244,-0.3299,-0.3203,-0.321,-0.3503,-0.3508,-0.3514,-0.3571,0,0,0,0,0,0,-0.2796,-0.2821,-0.2863,-0.2915,-0.2939,-0.3074,-0.3017,-0.3021,-0.306,-0.3055,-0.3113,-0.3119,-0.3129,-0.3233,-0.3252,-0.3308,-0.3216,-0.3498,-0.3505,-0.3512,-0.3565,-0.3578,-0.3589,0,0,0,0,0,-0.2788,-0.2875,-0.2865,-0.2886,-0.2992,-0.3077,-0.3091,-0.3099,-0.3064,-0.3108,-0.3134,-0.3117,-0.3289,-0.3243,-0.3264,-0.3324,-0.3495,-0.3503,-0.3511,-0.3559,-0.3575,-0.3589,0,0,0,0,0,0,-0.2831,-0.2882,-0.2872,-0.2978,-0.3023,-0.3072,-0.3127,-0.3116,-0.3173,-0.3167,-0.3176,-0.3189,-0.3289,-0.3315,-0.3263,-0.3437,-0.3387,-0.34,-0.3416,-0.3432,-0.3444,-0.3437,-0.3222,0,0,0,0,0,-0.2852,-0.2916,-0.2958,-0.3048,-0.3071,-0.3095,-0.3132,-0.3135,-0.3183,-0.3202,-0.3235,-0.3283,-0.3348,-0.3391,-0.3453,-0.3567,-0.358,-0.3618,-0.3631,-0.3641,-0.3653,-0.3717,-0.3735,-0.3543,-0.3543,-0.3543,0,0,-0.2899,-0.2934,-0.2974,-0.3058,-0.3093,-0.316,-0.3112,-0.3184,-0.3235,-0.3214,-0.3308,-0.3333,-0.3388,-0.3494,-0.3543,-0.352,-0.3708,-0.3651,-0.3659,-0.3666,-0.3728,-0.3746,-0.3762,-0.3548,-0.3547,-0.3546,0,0,-0.3018,-0.305,-0.313,-0.3165,-0.3219,-0.3234,-0.3253,-0.3303,-0.332,-0.3413,-0.3399,-0.346,-0.3571,-0.3611,-0.3646,-0.3779,-0.3766,-0.3798,-0.3865,-0.3927,-0.3943,-0.3956,-0.4006,-0.4024,-0.3809,-0.381,-0.381,0,-0.3069,-0.3168,-0.3172,-0.3247,-0.3285,-0.3266,-0.3348,-0.3383,-0.3455,-0.3482,-0.3454,-0.3593,-0.3628,-0.3745,-0.3778,-0.3805,-0.3829,-0.3794,-0.394,-0.3953,-0.3966,-0.4014,-0.4033,-0.3813,-0.3813,-0.3813,-0.3812,0,-0.323,-0.3299,-0.3357,-0.3425,-0.3469,-0.3547,-0.3564,-0.3609,-0.3607,-0.3626,-0.3723,-0.3763,-0.3834,-0.3861,-0.386,-0.3978,-0.3962,-0.3937,-0.3888,-0.3988,-0.4034,-0.4052,-0.3819,-0.3817,-0.3816,-0.3815,0,0,-0.3382,-0.345,-0.3472,-0.3503,-0.356,-0.3615,-0.3691,-0.3759,-0.3798,-0.3847,-0.3914,-0.4008,-0.3985,-0.4024,-0.4028,-0.4082,-0.4188,-0.405,-0.4052,-0.4077,-0.4323,-0.4344,-0.4365,-0.4178,-0.4182,-0.4184,-0.4319,0,-0.3508,-0.3643,-0.3649,-0.3773,-0.3838,-0.382,-0.3888,-0.3931,-0.395,-0.4009,-0.403,-0.4098,-0.4061,-0.4085,-0.4137,-0.4164,-0.4238,-0.4154,-0.4243,-0.4246,-0.4233,-0.4389,-0.4411,-0.4537,-0.4337,-0.434,-0.4342,0,-0.3674,-0.3728,-0.3858,-0.3906,-0.3934,-0.3994,-0.4057,-0.4113,-0.4161,-0.4172,-0.4215,-0.4211,-0.4291,-0.4237,-0.4349,-0.4292,-0.4328,-0.4346,-0.4352,-0.4363,-0.4303,-0.4407,-0.4577,-0.4597,-0.4369,-0.4367,-0.4365,0,-0.3776,-0.388,-0.3972,-0.3999,-0.4057,-0.41,-0.4126,-0.4171,-0.4212,-0.4267,-0.4294,-0.4357,-0.4393,-0.4444,-0.4457,-0.4416,-0.457,-0.4516,-0.4583,-0.4583,-0.462,-0.4618,-0.48,-0.4637,-0.4637,-0.4637,-0.4636,0,-0.3919,-0.4,-0.4019,-0.4076,-0.4166,-0.4172,-0.4262,-0.4285,-0.4325,-0.4387,-0.4375,-0.4434,-0.4447,-0.4509,-0.4519,-0.4612,-0.4628,-0.464,-0.4643,-0.4643,-0.4642,-0.467,-0.4663,-0.4642,-0.4641,-0.464,-0.4639,0,-0.4049,-0.4064,-0.4164,-0.421,-0.4223,-0.4288,-0.4328,-0.4384,-0.44,-0.4479,-0.4498,-0.4525,-0.4597,-0.4614,-0.4701,-0.4708,-0.4819,-0.4811,-0.4802,-0.4803,-0.487,-0.4865,-0.508,-0.5109,-0.4924,-0.4926,-0.4927,0,-0.4141,-0.4203,-0.4255,-0.4295,-0.4323,-0.4388,-0.4428,-0.4436,-0.4479,-0.4539,-0.4588,-0.4658,-0.4715,-0.4831,-0.486,-0.4926,-0.4922,-0.4993,-0.4932,-0.4931,-0.4927,-0.4925,-0.4932,-0.5006,-0.5008,-0.5009,-0.501,0,-0.4303,-0.4307,-0.4366,-0.4428,-0.4477,-0.4526,-0.4573,-0.4607,-0.4621,-0.4671,-0.4744,-0.4788,-0.4875,-0.4946,-0.5012,-0.504,-0.503,-0.5028,-0.5048,-0.5051,-0.5045,-0.5052,-0.4837,-0.5025,-0.5023,-0.5022,-0.5021,-0.5021,-0.4419,-0.4474,-0.4519,-0.4585,-0.4621,-0.4665,-0.472,-0.4743,-0.4803,-0.4874,-0.4875,-0.4955,-0.5002,-0.509,-0.5122,-0.5186,-0.5164,-0.5192,-0.52,-0.5207,-0.5215,-0.5031,-0.5197,-0.5197,-0.5197,-0.5196,-0.5196,0,-0.4583,-0.4611,-0.4671,-0.4737,-0.479,-0.4771,-0.4822,-0.4868,-0.4938,-0.4983,-0.5039,-0.5123,-0.5192,-0.5225,-0.5293,-0.5338,-0.5334,-0.5356,-0.5354,-0.5362,-0.5229,-0.5206,-0.5357,-0.5357,-0.5357,-0.5357,-0.5357,-0.5357,-0.4675,-0.4767,-0.4777,-0.4887,-0.4914,-0.4992,-0.5023,-0.5065,-0.51,-0.5195,-0.5251,-0.5271,-0.5312,-0.5383,-0.5445,-0.5453,-0.548,-0.5505,-0.5511,-0.5387,-0.5371,-0.5355,-0.5334,-0.551,-0.551,-0.5639,-0.564,-0.5641]},{"header":{"parameterUnit":"m.s-1","parameterCategory":1,"la1":30.2991,"la2":30.254,"lo1":-89.0895,"lo2":-89.0444,"dy":0.0017,"dx":0.0017,"nx":28,"ny":28,"refTime":"2023-11-22T03:00:00:Z","depth":0,"parameterNumber":3,"parameterNumberName":"V-component_of_WINDS"},"data":[0,0,0,0,0,0,0,0,0,0,0,0,0,0,0,0,0,0,0,0,0,0,0,0,0,0,0,0,0,0,0,0,0,0,0,0,0,0,0,0,0,0,0,0,0,0,0,0,0,0,0,0,0,0,0,0,0,0,-4.597,-4.5972,0,-4.6098,-4.61,-4.6101,-4.6029,-4.6025,-4.6022,-4.6018,-4.6147,-4.6154,-4.616,0,0,0,0,0,0,0,0,0,0,0,0,0,-4.566,-4.5666,-4.597,-4.5972,-4.5973,-4.6098,-4.61,-4.6101,-4.6029,-4.6025,-4.6021,-4.6017,-4.6145,-4.6153,-4.6161,0,0,0,0,0,0,0,0,0,0,0,0,0,-4.5792,-4.5668,-4.597,-4.5952,-4.5952,-4.6098,-4.61,-4.6102,-4.603,-4.6025,-4.602,-4.6015,-4.6142,-4.6152,-4.6162,-4.6331,0,0,-4.6193,-4.6197,0,0,0,0,0,0,0,0,-4.5785,-4.5804,-4.5953,-4.5954,-4.5954,-4.6042,-4.6038,-4.6179,-4.6032,-4.6001,-4.6018,-4.6012,-4.6116,-4.6128,-4.6164,-4.6337,-4.6343,-4.6194,-4.62,-4.6204,-4.6207,0,0,0,0,0,0,0,-4.5776,-4.5798,-4.6021,-4.5956,-4.5956,-4.5937,-4.595,-4.6064,-4.6087,-4.6003,-4.5998,-4.6014,-4.6115,-4.6154,-4.6166,-4.6345,-4.6193,-4.6202,-4.6209,-4.6213,-4.6662,-4.6667,0,0,0,0,0,0,-4.5768,-4.5791,-4.6017,-4.6024,-4.5855,-4.5947,-4.5961,-4.6019,-4.6085,-4.609,-4.6019,-4.601,-4.614,-4.6155,-4.6171,-4.6372,-4.6204,-4.6214,-4.6219,-4.6656,-4.6663,-4.6669,0,0,0,0,0,0,-4.5762,-4.5789,-4.6011,-4.5906,-4.5933,-4.5958,-4.6023,-4.6024,-4.6063,-4.6097,-4.61,-4.6054,-4.6136,-4.6156,-4.6292,-4.6376,-4.6218,-4.6227,-4.6649,-4.6658,-4.6666,-4.6778,0,0,0,0,0,0,-4.5753,-4.5787,-4.5853,-4.5908,-4.5939,-4.6132,-4.6029,-4.6031,-4.6081,-4.6072,-4.6132,-4.6136,-4.6133,-4.6277,-4.6302,-4.6387,-4.6235,-4.6642,-4.6653,-4.6663,-4.6767,-4.6789,-4.6809,0,0,0,0,0,-4.5742,-4.5879,-4.5856,-4.5884,-4.6022,-4.6137,-4.6154,-4.6149,-4.6088,-4.6154,-4.6175,-4.6135,-4.6363,-4.6291,-4.6319,-4.6408,-4.6636,-4.665,-4.6663,-4.6757,-4.6785,-4.6808,0,0,0,0,0,0,-4.5832,-4.5886,-4.5861,-4.602,-4.6074,-4.6124,-4.6207,-4.6178,-4.625,-4.6238,-4.6227,-4.6241,-4.6382,-4.6408,-4.6328,-4.6575,-4.649,-4.6509,-4.6552,-4.6579,-4.66,-4.659,-4.6244,0,0,0,0,0,-4.587,-4.596,-4.6002,-4.6137,-4.6166,-4.6182,-4.6232,-4.6223,-4.6278,-4.6301,-4.6332,-4.6387,-4.6471,-4.6526,-4.6605,-4.677,-4.6781,-4.6845,-4.6866,-4.6883,-4.69,-4.6988,-4.7016,-4.6713,-4.6712,-4.6712,0,0,-4.595,-4.599,-4.6048,-4.6156,-4.6197,-4.629,-4.6202,-4.6303,-4.6372,-4.6316,-4.6446,-4.6471,-4.6531,-4.6682,-4.6749,-4.6708,-4.6986,-4.69,-4.6913,-4.6921,-4.7004,-4.7033,-4.7058,-4.6722,-4.672,-4.6718,0,0,-4.6142,-4.6182,-4.6299,-4.6342,-4.6406,-4.6415,-4.6443,-4.6498,-4.6512,-4.6643,-4.6603,-4.6683,-4.6828,-4.6872,-4.6913,-4.7122,-4.7087,-4.7148,-4.7257,-4.7343,-4.7367,-4.7388,-4.7462,-4.7489,-4.7164,-4.7165,-4.7165,0,-4.6233,-4.6372,-4.6363,-4.6468,-4.6517,-4.6471,-4.6589,-4.663,-4.6716,-4.675,-4.6703,-4.6883,-4.692,-4.708,-4.7131,-4.7166,-4.7197,-4.7141,-4.7365,-4.7386,-4.7405,-4.7475,-4.7503,-4.7171,-4.7171,-4.717,-4.7169,0,-4.648,-4.6577,-4.6663,-4.6748,-4.6806,-4.6917,-4.6924,-4.6984,-4.697,-4.6984,-4.7116,-4.7159,-4.7246,-4.7283,-4.727,-4.7441,-4.7413,-4.7366,-4.728,-4.7441,-4.7507,-4.7534,-4.7181,-4.7179,-4.7177,-4.7175,0,0,-4.6733,-4.6811,-4.6843,-4.688,-4.6947,-4.7021,-4.7129,-4.7214,-4.7265,-4.7325,-4.7415,-4.7538,-4.7494,-4.7542,-4.7533,-4.7608,-4.777,-4.7551,-4.7552,-4.759,-4.796,-4.7996,-4.8027,-4.7747,-4.7752,-4.7756,-4.7955,0,-4.693,-4.712,-4.7115,-4.7291,-4.738,-4.7337,-4.7431,-4.7481,-4.7497,-4.7573,-4.759,-4.7678,-4.7613,-4.7641,-4.7714,-4.7735,-4.7844,-4.772,-4.7829,-4.7833,-4.7816,-4.8061,-4.81,-4.8285,-4.798,-4.7985,-4.7988,0,-4.7185,-4.7254,-4.744,-4.7492,-4.7529,-4.7614,-4.7691,-4.7765,-4.782,-4.7826,-4.7879,-4.7857,-4.7966,-4.7877,-4.8026,-4.7942,-4.7986,-4.8003,-4.801,-4.802,-4.792,-4.8078,-4.8345,-4.8373,-4.8028,-4.8025,-4.8022,0,-4.735,-4.749,-4.7619,-4.7652,-4.7716,-4.7777,-4.7806,-4.7856,-4.7908,-4.7975,-4.8007,-4.8086,-4.8129,-4.819,-4.819,-4.8126,-4.834,-4.8252,-4.8347,-4.8348,-4.8395,-4.8392,-4.8672,-4.8424,-4.8423,-4.8423,-4.8422,0,-4.757,-4.7685,-4.7694,-4.7773,-4.79,-4.7893,-4.8018,-4.8042,-4.8087,-4.8169,-4.8136,-4.8213,-4.8209,-4.8287,-4.8288,-4.841,-4.843,-4.8437,-4.8436,-4.844,-4.8439,-4.8469,-4.8456,-4.843,-4.8428,-4.8427,-4.8426,0,-4.7777,-4.7788,-4.7925,-4.7975,-4.799,-4.8081,-4.8123,-4.8197,-4.821,-4.8314,-4.8338,-4.8358,-4.8448,-4.8454,-4.8558,-4.8558,-4.8707,-4.8692,-4.8689,-4.8686,-4.8781,-4.8772,-4.9091,-4.9132,-4.8856,-4.8859,-4.8861,0,-4.7917,-4.8005,-4.8063,-4.8116,-4.815,-4.8235,-4.8287,-4.8283,-4.8338,-4.8407,-4.8474,-4.8561,-4.863,-4.8776,-4.8799,-4.8878,-4.8864,-4.897,-4.8876,-4.8877,-4.8865,-4.886,-4.8869,-4.8989,-4.8992,-4.8994,-4.8996,0,-4.8164,-4.8165,-4.8242,-4.8321,-4.8384,-4.8445,-4.8503,-4.8548,-4.8549,-4.8613,-4.8706,-4.876,-4.8866,-4.8953,-4.903,-4.9058,-4.9028,-4.9026,-4.9052,-4.9058,-4.9052,-4.9056,-4.8739,-4.9019,-4.9016,-4.9015,-4.9014,-4.9013,-4.8342,-4.8417,-4.847,-4.8557,-4.8599,-4.8653,-4.8726,-4.8747,-4.8825,-4.8911,-4.8903,-4.9005,-4.9057,-4.9157,-4.9192,-4.9271,-4.9235,-4.9273,-4.9283,-4.9292,-4.9302,-4.904,-4.9285,-4.9285,-4.9284,-4.9283,-4.9283,0,-4.8587,-4.8619,-4.8698,-4.878,-4.8847,-4.8813,-4.8874,-4.8933,-4.9024,-4.9075,-4.9144,-4.9249,-4.9333,-4.9362,-4.9443,-4.95,-4.9488,-4.9522,-4.9517,-4.9524,-4.933,-4.9299,-4.953,-4.953,-4.953,-4.953,-4.953,-4.953,-4.8722,-4.8848,-4.8855,-4.9001,-4.9031,-4.9132,-4.917,-4.9219,-4.926,-4.9379,-4.9449,-4.9467,-4.9509,-4.9593,-4.9668,-4.9674,-4.9705,-4.9744,-4.9745,-4.9563,-4.9538,-4.9514,-4.9485,-4.9751,-4.9752,-4.9932,-4.9934,-4.9935]}]]